Flag for United Kingdom Weather past 2 weeks in Coventry, England, United Kingdom

Now
50 °F

Passing clouds.


Feels Like: 47 °F
Forecast: 42 / 58 °F
Wind: 7 mph from Southwest

Location: Coventry Airport

Current Time: May 29, 2015 at 2:21:22 AM

Latest Report: May 29, 2015 at 1:50 AM


Visibility: N/A

Pressure: 29.86 "Hg

Humidity: 76%

Dew point: 43 °F

Location of CoventryLocation

Historic Weather in Coventry — Graph

°F

Coventry temperature yesterday

Maximum temperature yesterday: 59 °F (at 2:20 PM)
Minimum temperature yesterday: 48 °F (at 9:50 PM)
Average temperature yesterday: 55 °F

Past Weeks' High & Low Weather Summary

 TemperatureHumidityPressure
High66 °F (May 21, 4:50 PM)100% (May 18, 7:20 AM)30.33 "Hg (May 18, 7:20 AM)
Low41 °F (May 20, 6:20 AM)37% (May 21, 5:50 PM)29.53 "Hg (May 18, 11:50 AM)
Average54 °F72%30.06 "Hg
* Reported May 14 1:20 AM — May 29 1:20 AM, Coventry, Weather by CustomWeather, © 2015

Note: Actual official high and low records may vary slightly from our data, if they occured in-between our weather recording intervals... More about our weather records

Advertising

Coventry weather history for previous 24 hours

 ConditionsComfort  
Time TempWeatherWind HumidityBarometerVisibility
1:20 AM
Fri, May 29
50 °FClear.6 mph76%29.86 "Hg10 mi
12:50 AM50 °FClear.10 mph76%29.89 "Hg10 mi
12:20 AM50 °FClear.7 mph71%29.89 "Hg10 mi
11:50 PM
Thu, May 28
50 °FClear.7 mph67%29.89 "Hg10 mi
10:50 PM50 °FClear.6 mph67%29.92 "Hg10 mi
10:20 PM50 °FClear.5 mph62%29.92 "Hg10 mi
9:50 PM48 °FSunny.6 mph66%29.92 "Hg10 mi
9:20 PM54 °FSunny.8 mph54%29.92 "Hg10 mi
8:50 PM54 °FPassing clouds.9 mph54%29.92 "HgN/A
8:20 PM55 °FSunny.8 mph47%29.92 "Hg10 mi
7:50 PM57 °FPassing clouds.12 mph44%29.92 "HgN/A
7:20 PM57 °FPassing clouds.13 mph44%29.92 "HgN/A
6:50 PM57 °FPassing clouds.14 mph44%29.92 "HgN/A
6:20 PM59 °FPassing clouds.15 mph45%29.92 "HgN/A
5:50 PM59 °FPassing clouds.17 mph45%29.92 "HgN/A
5:20 PM59 °FScattered clouds.14 mph42%29.92 "HgN/A
4:50 PM59 °FScattered clouds.17 mph45%29.95 "HgN/A
4:20 PM59 °FScattered clouds.18 mph45%29.95 "HgN/A
3:50 PM57 °FPassing clouds.15 mph44%29.95 "HgN/A
3:20 PM59 °FPassing clouds.16 mph45%29.95 "HgN/A
2:50 PM59 °FPassing clouds.17 mph45%29.95 "HgN/A
2:20 PM59 °FScattered clouds.17 mph45%29.95 "HgN/A
1:50 PM57 °FScattered clouds.15 mph55%29.95 "HgN/A
1:20 PM57 °FScattered clouds.16 mph51%29.95 "HgN/A
12:50 PM55 °FScattered clouds.9 mph59%29.95 "HgN/A
12:20 PM54 °FScattered showers. Scattered clouds.18 mph63%29.95 "HgN/A
11:50 AM55 °FScattered clouds.15 mph59%29.95 "HgN/A
11:20 AM55 °FScattered clouds.15 mph55%29.95 "HgN/A
10:50 AM55 °FScattered clouds.14 mph55%29.95 "HgN/A
10:20 AM54 °FScattered clouds.13 mph63%29.95 "HgN/A
9:50 AM54 °FScattered clouds.10 mph63%29.95 "HgN/A
9:20 AM52 °FScattered clouds.10 mph72%29.95 "HgN/A
8:50 AM52 °FScattered clouds.13 mph72%29.95 "HgN/A
8:20 AM52 °FScattered clouds.12 mph72%29.95 "HgN/A
7:50 AM50 °FScattered clouds.10 mph82%29.92 "HgN/A
7:20 AM50 °FPassing clouds.13 mph82%29.92 "HgN/A
Weather by CustomWeather, © 2015

See weather overviewHow to use our weather pages